Regional Weather Roundup
Issued by NWS Albany, NY

Home | Current Version | Previous Version | Graphics & Text | Print | Product List | Glossary Off
Versions: 1 2 3 4 5 6 7 8 9 10 11 12 13 14 15 16 17 18 19 20 21 22 23 24 25 26 27

000
ASUS41 KALY 230810
RWRALY

NEW YORK STATE HOURLY WEATHER ROUNDUP
NATIONAL WEATHER SERVICE ALBANY NY
400 AM EDT WED APR 23 2014

NOTE: "FAIR" INDICATES FEW OR NO CLOUDS BELOW 12,000 FEET WITH NO
SIGNIFICANT WEATHER AND/OR NO OBSTRUCTIONS TO VISIBILITY.

NYZ032-033-038>043-046>054-057>066-NYZ062>081-230900-
EAST


CITY           SKY/WX    TMP DP  RH WIND       PRES   REMARKS
ALBANY         LGT RAIN  45  37  73 NW12G20   29.54F
GLENS FALLS    MOCLDY    49  40  71 W7        29.51R
POUGHKEEPSIE   CLOUDY    52  48  86 NE10      29.50S
NEWBURGH       MOCLDY    52  48  87 CALM      29.52R
MONTGOMERY     CLOUDY    52  42  69 NW8       29.51R
WHITE PLAINS   MOCLDY    53  45  74 NW15      29.48R
ISLIP          PTCLDY    49  47  93 W6        29.46S FOG
NEW YORK CITY  MOCLDY    56  42  59 NW14      29.50R
CENTRAL PARK   CLOUDY    56  43  61 VRB6      29.53S
$$

NYZ005>009-017-018-044>046-055-056-230900-
CENTRAL


CITY           SKY/WX    TMP DP  RH WIND       PRES   REMARKS
FULTON         LGT RAIN  39  37  92 W13G23    29.61F FOG     WCI  31
SYRACUSE       LGT RAIN  41  39  93 W15G21    29.61F
ROME           LGT RAIN  40  37  89 W9        29.60F WCI  34
ELMIRA         CLOUDY    42  34  73 W5        29.64R
BINGHAMTON     CLOUDY    40  33  76 NW7       29.58S
MONTICELLO     CLOUDY    41  39  93 NW17G24   29.57R
$$

NYZ026>034-041>043-230900-
NORTH


CITY           SKY/WX    TMP DP  RH WIND       PRES   REMARKS
WATERTOWN      LGT RAIN  42  38  85 CALM      29.59S FOG
FORT DRUM      NOT AVBL
MASSENA        LGT RAIN  43  42  97 NW5       29.58R
SARANAC LAKE   CLOUDY    39  38  96 W5        29.49S FOG
PLATTSBURGH    CLOUDY    45  42  89 N8        29.51R
$$

NYZ001>004-010>016-019>021-230900-
WEST


CITY           SKY/WX    TMP DP  RH WIND       PRES   REMARKS
NIAGARA FALLS  LGT RAIN  39  34  82 NW13      29.73R WCI  31
BUFFALO        CLOUDY    40  35  83 W12       29.73R WCI  33
DUNKIRK        LGT RAIN  37  33  85 SW13      29.78R WCI  29
JAMESTOWN      CLOUDY    34  30  86 W16       29.74S WCI  23
WELLSVILLE     FLURRIES  35  30  82 W18       29.67S WCI  24
ROCHESTER      LGT RAIN  40  37  89 W16       29.67R WCI  31
PENN YAN       CLOUDY    41  35  79 W10G23    29.63S
$$

             KEY
       WCI = WIND CHILL INDEX
       VSB = VISIBILITY
       HX  = HEAT INDEX
$$



USA.gov is the U.S. government's official web portal to all federal, state and local government web resources and services.